Weather History for PAOM - July, 2014

Change the Weather History Date:

Monday, July 28, 2014

  Actual Average Record
Temperature  
Mean Temperature 55 °F 52 °F  
Max Temperature 64 °F 58 °F 75 °F (1953)
Min Temperature 46 °F 46 °F 31 °F (1973)
Degree Days  
Heating Degree Days 10 13  
Month to date heating degree days 388 361  
Since 1 June heating degree days 956 877  
Since 1 July heating degree days 388 361  
Cooling Degree Days 0    
Month to date cooling degree days 2  
Year to date cooling degree days 2  
Since 1 June cooling degree days 2  
Growing Degree Days 5 (Base 50)    
Moisture  
Dew Point 48 °F    
Average Humidity 0    
Maximum Humidity 0    
Minimum Humidity 0    
Precipitation  
Precipitation T in 0.09 in 1.13 in (2012)
Month to date precipitation 2.48 1.82  
Year to date precipitation 7.17 6.94  
Snow  
Snow 0.00 in 0.00 in 0.00 in (2015)
Month to date snowfall 0.0 0.0  
Since 1 June snowfall 0.0 0.3  
Since 1 July snowfall 0.0 0.0  
Snow Depth 0.00 in    
Sea Level Pressure  
Sea Level Pressure 30.08 in    
Wind  
Wind Speed 7 mph (NNE)    
Max Wind Speed 22 mph    
Max Gust Speed 26 mph    
Visibility 9 miles    
Events Fog    
T = Trace of Precipitation, MM = Missing Value Source: NWS Daily Summary

Daily Weather History Graph

Daily Weather History Graph

Search for Another Location

Airport or City:

Trip Planner

Search our weather history database for the weather conditions in past years. The results will help you decide how hot, cold, wet, or windy it might be!

Date:

Astronomy

Jul. 28, 2014 Rise Set
Actual Time 5:52 AM AKDT 12:21 AM AKDT
Civil Twilight 3:58 AM AKDT 2:09 AM AKDT
Nautical Twilight Sun does not set Sun does not set
Astronomical Twilight Sun does not set Sun does not set
Moon 8:59 AM AKDT (7/28) 11:44 PM AKDT (7/28)
Length of Visible Light 22h 10m
Length of Day
18h 29m
Waxing Crescent, 3% of the Moon is Illuminated
Jul 28
Waxing Crescent
Aug 3
First Quarter
Aug 10
Full
Aug 17
Last Quarter
Aug 25
New

Hourly Weather History & Observations

Time (AKDT) Temp. Dew Point Humidity Pressure Visibility Wind Dir Wind Speed Gust Speed Precip Events Conditions
12:53 AM 48.0 °F 46.9 °F 96% 29.98 in 10.0 mi Calm Calm - N/A   Overcast
1:53 AM 48.0 °F 46.9 °F 96% 29.99 in 10.0 mi WNW 3.5 mph - N/A   Overcast
2:53 AM 46.9 °F 46.9 °F 100% 29.99 in 6.0 mi Calm Calm - N/A   Overcast
2:57 AM 46.9 °F 46.0 °F 97% 29.99 in 2.0 mi Calm Calm - N/A   Overcast
3:00 AM 46.9 °F 46.0 °F 97% 29.99 in 0.8 mi Calm Calm - N/A   Overcast
3:08 AM 46.9 °F 46.9 °F 100% 29.99 in 0.5 mi Calm Calm - N/A Fog Fog
3:34 AM 46.0 °F 46.0 °F 100% 30.00 in 0.5 mi Calm Calm - N/A Fog Fog
3:40 AM 46.0 °F 46.0 °F 100% 30.00 in 1.0 mi Calm Calm - N/A   Overcast
3:53 AM 46.0 °F 46.0 °F 100% 30.00 in 10.0 mi Calm Calm - N/A   Overcast
4:53 AM 46.0 °F 46.0 °F 100% 30.01 in 10.0 mi Calm Calm - N/A   Overcast
5:53 AM 46.9 °F 46.9 °F 100% 30.03 in 10.0 mi NNW 3.5 mph - 0.00 in   Overcast
6:53 AM 48.0 °F 48.0 °F 100% 30.04 in 10.0 mi Calm Calm - N/A   Overcast
7:53 AM 48.9 °F 48.0 °F 97% 30.04 in 10.0 mi Calm Calm - N/A   Overcast
8:53 AM 50.0 °F 48.9 °F 96% 30.05 in 10.0 mi Calm Calm - N/A   Overcast
9:29 AM 51.1 °F 48.9 °F 92% 30.06 in 10.0 mi East 3.5 mph - N/A   Overcast
9:53 AM 52.0 °F 50.0 °F 93% 30.06 in 10.0 mi Calm Calm - N/A   Overcast
10:43 AM 54.0 °F 50.0 °F 86% 30.08 in 10.0 mi Calm Calm - N/A   Overcast
10:53 AM 55.0 °F 48.9 °F 80% 30.08 in 10.0 mi ENE 3.5 mph - N/A   Overcast
11:53 AM 57.0 °F 48.9 °F 74% 30.09 in 10.0 mi NNE 10.4 mph - N/A   Overcast
12:53 PM 59.0 °F 46.4 °F 63% 30.10 in 10.0 mi NE 16.1 mph - N/A   Mostly Cloudy
1:53 PM 59.0 °F 46.9 °F 64% 30.12 in 10.0 mi NE 13.8 mph - N/A   Scattered Clouds
2:53 PM 61.0 °F 45.0 °F 56% 30.14 in 10.0 mi ENE 13.8 mph 23.0 mph N/A   Scattered Clouds
3:53 PM 62.1 °F 46.0 °F 56% 30.15 in 10.0 mi NNE 15.0 mph - N/A   Scattered Clouds
4:53 PM 63.0 °F 46.0 °F 54% 30.16 in 10.0 mi East 10.4 mph - N/A   Scattered Clouds
5:53 PM 57.9 °F 48.9 °F 72% 30.17 in 10.0 mi SSW 9.2 mph - N/A   Mostly Cloudy
6:53 PM 59.0 °F 48.9 °F 69% 30.19 in 10.0 mi West 13.8 mph - N/A   Mostly Cloudy
7:53 PM 60.1 °F 48.9 °F 67% 30.19 in 10.0 mi West 13.8 mph - N/A   Scattered Clouds
8:53 PM 57.9 °F 50.0 °F 75% 30.20 in 10.0 mi WSW 10.4 mph - N/A   Scattered Clouds
9:53 PM 59.0 °F 51.1 °F 75% 30.20 in 10.0 mi West 9.2 mph - N/A   Scattered Clouds
10:53 PM 62.1 °F 46.9 °F 58% 30.21 in 10.0 mi North 5.8 mph - N/A   Scattered Clouds
11:53 PM 55.9 °F 46.0 °F 69% 30.21 in 10.0 mi NNE 4.6 mph - N/A   Scattered Clouds